Tracking 35275 objects as of 9-Sep-2026
HD Live streaming from Space Station
objects crossing your sky now

ELEKTRO-L 4

Track ELEKTRO-L 4 now!
ELEKTRO-L 4 is classified as:


NORAD ID: 55506
Int'l Code: 2023-016A
Launch date: February 5, 2023
Source: Commonwealth of Independent States (former USSR) (CIS)
Launch site: TYURATAM MISSILE AND SPACE COMPLEX (TTMTR)

Uplink (MHz):
Downlink (MHz): 1691.000
Beacon (MHz):
Mode:
Call sign:
Status:

Your satellite tracking list
Your tracking list is empty




NASA's NSSDC Master Catalog

Two Line Element Set (TLE):
1 55506U 23016A   26251.57363824 -.00000079  00000-0  00000-0 0  9994
2 55506   0.0421  39.0497 0002319 151.7489 169.1907  1.00273443 13171
Source of the keplerian elements: AFSPC